CDT,Max TemperatureF,Mean TemperatureF,Min TemperatureF,Max Dew PointF,MeanDew PointF,Min DewpointF,Max Humidity, Mean Humidity, Min Humidity, Max Sea Level PressureIn, Mean Sea Level PressureIn, Min Sea Level PressureIn, Max VisibilityMiles, Mean VisibilityMiles, Min VisibilityMiles, Max Wind SpeedMPH, Mean Wind SpeedMPH, Max Gust SpeedMPH,PrecipitationIn, CloudCover, Events, WindDirDegrees
2011-10-1,82,65,48,47,42,35,89,52,18,30.20,30.13,30.09,10,10,10,9,2,16,0.00,0,,36
2011-10-2,80,63,46,44,41,35,86,50,20,30.25,30.19,30.14,10,10,4,7,2,,0.00,0,,10
2011-10-3,82,62,43,47,42,35,93,57,19,30.26,30.20,30.16,10,10,7,5,0,,0.00,0,,60
2011-10-4,84,64,45,47,43,38,93,53,20,30.26,30.19,30.13,10,10,5,7,1,,0.00,0,,30
2011-10-5,86,67,48,52,47,44,93,63,24,30.19,30.13,30.05,10,8,2,6,1,,0.00,0,,123
2011-10-6,86,70,54,62,57,49,90,65,41,30.12,30.07,30.03,10,10,8,9,2,16,0.00,0,,115
2011-10-7,87,74,60,65,61,58,100,71,39,30.15,30.11,30.06,10,8,2,8,2,,0.00,1,,120
2011-10-8,89,76,63,64,62,59,93,65,38,30.12,30.07,30.00,10,10,10,9,3,21,0.00,0,,104
2011-10-9,84,74,63,63,61,59,93,70,43,30.06,30.01,29.94,10,10,9,10,3,17,0.00,0,,102
2011-10-10,87,76,64,62,60,57,87,67,39,30.03,29.96,29.89,10,10,10,8,1,16,0.00,1,,33
2011-10-11,87,73,59,63,59,56,93,68,37,29.93,29.88,29.80,10,10,8,9,1,,0.00,1,,358
2011-10-12,82,71,60,65,62,58,97,83,49,29.84,29.81,29.75,10,8,2,10,2,18,0.02,2,Rain-Thunderstorm,254
2011-10-13,84,70,57,64,52,41,97,60,22,29.89,29.83,29.80,10,9,4,10,2,22,0.01,0,,344
2011-10-14,87,68,48,49,45,39,86,51,18,30.00,29.95,29.90,10,10,6,8,1,,0.00,0,,110
2011-10-15,89,71,53,61,52,46,97,63,22,30.09,30.04,30.00,10,9,2,7,0,,0.00,0,,60
2011-10-16,89,70,52,62,55,51,97,63,31,30.12,30.04,29.96,10,9,5,8,1,20,0.00,0,,150
2011-10-17,89,75,61,68,63,56,100,79,38,29.97,29.90,29.72,10,6,0,12,2,21,0.00,4,Fog,177
2011-10-18,70,58,45,68,57,44,100,88,62,29.95,29.81,29.70,10,9,2,14,4,23,0.62,6,Rain-Thunderstorm,309
2011-10-19,68,56,42,44,35,28,97,57,23,30.06,29.96,29.90,10,10,9,14,4,31,0.00,0,,316
2011-10-20,70,53,36,42,35,25,97,62,19,30.14,30.09,30.05,10,10,10,7,1,,0.00,0,,345
2011-10-21,79,60,41,50,43,34,93,61,24,30.23,30.15,30.10,10,10,10,5,1,,0.00,0,,107
2011-10-22,82,68,54,59,55,48,87,66,41,30.16,30.08,30.01,10,10,10,7,1,,0.00,3,,160
2011-10-23,78,70,61,68,62,58,96,78,58,30.09,30.02,29.97,10,10,5,9,2,,0.06,4,Rain,252
2011-10-24,82,70,55,63,58,51,100,81,33,30.21,30.14,30.09,10,6,0,6,1,,0.00,1,Fog,30
2011-10-25,84,68,51,57,50,42,93,62,23,30.19,30.11,30.03,10,10,10,8,2,,0.01,0,,163
2011-10-26,82,68,55,65,59,55,100,76,44,30.04,29.97,29.88,10,7,0,7,1,,0.00,1,Fog,170
2011-10-27,87,73,57,67,62,57,100,84,39,29.92,29.89,29.80,10,6,0,10,2,18,0.26,5,Fog-Rain,14
2011-10-28,57,50,41,55,48,40,97,87,67,30.23,30.08,29.94,10,9,5,14,7,22,0.25,6,Rain,2
2011-10-29,66,52,37,42,38,32,97,70,27,30.29,30.21,30.14,10,9,4,9,1,,0.01,0,,17
2011-10-30,69,54,39,43,37,32,96,67,26,30.23,30.17,30.12,10,10,10,5,0,,0.00,0,,250
2011-10-31,75,57,39,44,40,37,96,68,28,30.24,30.19,30.13,10,10,9,7,1,,0.00,0,,324